Time,TemperatureF,DewpointF,PressureIn,WindDirection,WindDirectionDegrees,WindSpeedMPH,WindSpeedGustMPH,Humidity,HourlyPrecipIn,Conditions,Clouds,dailyrainin,SolarRadiationWatts/m^2,SoftwareType,DateUTC
2013-04-26 00:01:00,74.9,70.1,29.91,North,-999,0.0,0.0,85,0.00,,,-99.99,0,WeatherLink 5.4,2013-04-26 04:01:00,
2013-04-26 00:02:00,74.9,70.1,29.91,North,-999,0.0,0.0,85,0.00,,,-99.99,0,WeatherLink 5.4,2013-04-26 04:02:00,
2013-04-26 00:03:00,74.7,69.9,29.91,North,-999,0.0,0.0,85,0.00,,,-99.99,0,WeatherLink 5.4,2013-04-26 04:03:00,
2013-04-26 00:08:00,74.6,69.8,29.91,North,-999,0.0,0.0,85,0.00,,,-99.99,0,WeatherLink 5.4,2013-04-26 04:08:00,
2013-04-26 00:14:00,74.6,70.1,29.90,North,-999,0.0,0.0,86,0.00,,,-99.99,0,WeatherLink 5.4,2013-04-26 04:14:00,
2013-04-26 00:19:00,74.6,70.1,29.90,North,-999,0.0,0.0,86,0.00,,,-99.99,0,WeatherLink 5.4,2013-04-26 04:19:00,
2013-04-26 00:24:00,74.6,70.1,29.90,North,-999,0.0,0.0,86,0.00,,,-99.99,0,WeatherLink 5.4,2013-04-26 04:24:00,
2013-04-26 00:29:00,74.4,69.9,29.90,North,-999,0.0,0.0,86,0.00,,,-99.99,0,WeatherLink 5.4,2013-04-26 04:29:00,
2013-04-26 00:35:00,74.4,70.3,29.90,North,-999,0.0,0.0,87,0.00,,,-99.99,0,WeatherLink 5.4,2013-04-26 04:35:00,
2013-04-26 00:40:00,74.2,70.1,29.89,North,-999,0.0,0.0,87,0.00,,,-99.99,0,WeatherLink 5.4,2013-04-26 04:40:00,
2013-04-26 00:45:00,74.2,70.1,29.89,North,-999,0.0,0.0,87,0.00,,,-99.99,0,WeatherLink 5.4,2013-04-26 04:45:00,
2013-04-26 00:51:00,74.0,69.9,29.89,North,-999,0.0,0.0,87,0.00,,,-99.99,0,WeatherLink 5.4,2013-04-26 04:51:00,
2013-04-26 00:57:00,74.0,69.9,29.89,North,-999,0.0,0.0,87,0.00,,,-99.99,0,WeatherLink 5.4,2013-04-26 04:57:00,
2013-04-26 01:03:00,73.9,69.8,29.89,North,-999,0.0,0.0,87,0.00,,,-99.99,0,WeatherLink 5.4,2013-04-26 05:03:00,
2013-04-26 01:08:00,73.9,70.1,29.89,North,-999,0.0,0.0,88,0.00,,,-99.99,0,WeatherLink 5.4,2013-04-26 05:08:00,
2013-04-26 01:13:00,73.9,70.1,29.88,North,-999,0.0,0.0,88,0.00,,,-99.99,0,WeatherLink 5.4,2013-04-26 05:13:00,
2013-04-26 01:19:00,73.9,70.1,29.88,North,-999,0.0,0.0,88,0.00,,,-99.99,0,WeatherLink 5.4,2013-04-26 05:19:00,
2013-04-26 01:25:00,73.9,70.1,29.87,North,-999,0.0,0.0,88,0.00,,,-99.99,0,WeatherLink 5.4,2013-04-26 05:25:00,
2013-04-26 01:31:00,74.0,70.2,29.87,North,-999,0.0,0.0,88,0.00,,,-99.99,0,WeatherLink 5.4,2013-04-26 05:31:00,
2013-04-26 01:36:00,73.9,70.1,29.87,North,-999,0.0,0.0,88,0.00,,,-99.99,0,WeatherLink 5.4,2013-04-26 05:36:00,
2013-04-26 01:41:00,73.9,70.1,29.87,North,-999,0.0,0.0,88,0.00,,,-99.99,0,WeatherLink 5.4,2013-04-26 05:41:00,
2013-04-26 01:47:00,73.9,70.1,29.87,North,-999,0.0,0.0,88,0.00,,,-99.99,0,WeatherLink 5.4,2013-04-26 05:47:00,
2013-04-26 01:52:00,73.7,69.9,29.87,North,-999,0.0,0.0,88,0.00,,,-99.99,0,WeatherLink 5.4,2013-04-26 05:52:00,
2013-04-26 01:58:00,73.7,69.9,29.87,North,-999,0.0,0.0,88,0.00,,,-99.99,0,WeatherLink 5.4,2013-04-26 05:58:00,
2013-04-26 02:03:00,73.5,69.7,29.87,North,-999,0.0,0.0,88,0.00,,,-99.99,0,WeatherLink 5.4,2013-04-26 06:03:00,
2013-04-26 02:08:00,73.5,69.7,29.87,North,-999,0.0,0.0,88,0.00,,,-99.99,0,WeatherLink 5.4,2013-04-26 06:08:00,
2013-04-26 02:14:00,73.7,69.9,29.86,North,-999,0.0,0.0,88,0.00,,,-99.99,0,WeatherLink 5.4,2013-04-26 06:14:00,
2013-04-26 02:20:00,73.5,69.7,29.86,North,-999,0.0,0.0,88,0.00,,,-99.99,0,WeatherLink 5.4,2013-04-26 06:20:00,
2013-04-26 02:26:00,73.5,69.7,29.86,North,-999,0.0,0.0,88,0.00,,,-99.99,0,WeatherLink 5.4,2013-04-26 06:26:00,
2013-04-26 02:32:00,73.3,69.5,29.86,North,-999,0.0,0.0,88,0.00,,,-99.99,0,WeatherLink 5.4,2013-04-26 06:32:00,
2013-04-26 02:37:00,73.3,69.5,29.86,North,-999,0.0,0.0,88,0.00,,,-99.99,0,WeatherLink 5.4,2013-04-26 06:37:00,
2013-04-26 02:42:00,73.2,69.4,29.85,North,-999,0.0,0.0,88,0.00,,,-99.99,0,WeatherLink 5.4,2013-04-26 06:42:00,
2013-04-26 02:48:00,73.0,69.2,29.85,North,-999,0.0,0.0,88,0.00,,,-99.99,0,WeatherLink 5.4,2013-04-26 06:48:00,
2013-04-26 02:54:00,72.8,69.0,29.85,North,-999,0.0,0.0,88,0.00,,,-99.99,0,WeatherLink 5.4,2013-04-26 06:54:00,
2013-04-26 02:59:00,72.8,69.4,29.85,North,-999,0.0,0.0,89,0.00,,,-99.99,0,WeatherLink 5.4,2013-04-26 06:59:00,
2013-04-26 03:04:00,72.8,69.4,29.85,North,-999,0.0,0.0,89,0.00,,,-99.99,0,WeatherLink 5.4,2013-04-26 07:04:00,
2013-04-26 03:10:00,72.8,69.4,29.85,North,-999,0.0,0.0,89,0.00,,,-99.99,0,WeatherLink 5.4,2013-04-26 07:10:00,
2013-04-26 03:16:00,72.8,69.4,29.85,North,-999,0.0,0.0,89,0.00,,,-99.99,0,WeatherLink 5.4,2013-04-26 07:16:00,
2013-04-26 03:21:00,72.7,69.3,29.85,North,-999,0.0,0.0,89,0.00,,,-99.99,0,WeatherLink 5.4,2013-04-26 07:21:00,
2013-04-26 03:27:00,72.6,69.2,29.85,North,-999,0.0,0.0,89,0.00,,,-99.99,0,WeatherLink 5.4,2013-04-26 07:27:00,
2013-04-26 03:33:00,72.5,69.1,29.85,North,-999,0.0,0.0,89,0.00,,,-99.99,0,WeatherLink 5.4,2013-04-26 07:33:00,
2013-04-26 03:39:00,72.3,68.9,29.85,North,-999,0.0,0.0,89,0.00,,,-99.99,0,WeatherLink 5.4,2013-04-26 07:39:00,
2013-04-26 03:44:00,72.3,69.2,29.85,North,-999,0.0,0.0,90,0.00,,,-99.99,0,WeatherLink 5.4,2013-04-26 07:44:00,
2013-04-26 03:49:00,72.3,69.2,29.85,North,-999,0.0,0.0,90,0.00,,,-99.99,0,WeatherLink 5.4,2013-04-26 07:49:00,
2013-04-26 03:55:00,72.1,69.0,29.84,North,-999,0.0,0.0,90,0.00,,,-99.99,0,WeatherLink 5.4,2013-04-26 07:55:00,
2013-04-26 04:01:00,72.1,69.0,29.84,North,-999,0.0,0.0,90,0.00,,,-99.99,0,WeatherLink 5.4,2013-04-26 08:01:00,
2013-04-26 04:06:00,72.0,68.9,29.84,North,-999,0.0,0.0,90,0.00,,,-99.99,0,WeatherLink 5.4,2013-04-26 08:06:00,
2013-04-26 04:11:00,72.0,68.9,29.85,North,-999,0.0,0.0,90,0.00,,,-99.99,0,WeatherLink 5.4,2013-04-26 08:11:00,
2013-04-26 04:17:00,72.0,68.9,29.85,North,-999,0.0,0.0,90,0.00,,,-99.99,0,WeatherLink 5.4,2013-04-26 08:17:00,
2013-04-26 04:23:00,72.0,68.9,29.85,North,-999,0.0,0.0,90,0.00,,,-99.99,0,WeatherLink 5.4,2013-04-26 08:23:00,
2013-04-26 04:29:00,71.8,68.7,29.84,North,-999,0.0,0.0,90,0.00,,,-99.99,0,WeatherLink 5.4,2013-04-26 08:29:00,
2013-04-26 04:34:00,71.8,68.7,29.84,North,-999,0.0,0.0,90,0.00,,,-99.99,0,WeatherLink 5.4,2013-04-26 08:34:00,
2013-04-26 04:39:00,71.8,68.7,29.84,North,-999,0.0,0.0,90,0.00,,,-99.99,0,WeatherLink 5.4,2013-04-26 08:39:00,
2013-04-26 04:45:00,71.6,68.8,29.84,North,-999,0.0,0.0,91,0.00,,,-99.99,0,WeatherLink 5.4,2013-04-26 08:45:00,
2013-04-26 04:50:00,71.6,68.8,29.84,North,-999,0.0,0.0,91,0.00,,,-99.99,0,WeatherLink 5.4,2013-04-26 08:50:00,
2013-04-26 04:55:00,71.6,68.8,29.84,North,-999,0.0,0.0,91,0.00,,,-99.99,0,WeatherLink 5.4,2013-04-26 08:55:00,
2013-04-26 05:01:00,71.7,68.9,29.84,North,-999,0.0,0.0,91,0.00,,,-99.99,0,WeatherLink 5.4,2013-04-26 09:01:00,
2013-04-26 05:06:00,71.8,69.0,29.84,North,-999,0.0,0.0,91,0.00,,,-99.99,0,WeatherLink 5.4,2013-04-26 09:06:00,
2013-04-26 05:11:00,71.8,69.0,29.85,North,-999,0.0,0.0,91,0.00,,,-99.99,0,WeatherLink 5.4,2013-04-26 09:11:00,
2013-04-26 05:17:00,71.8,69.0,29.85,North,-999,0.0,0.0,91,0.00,,,-99.99,0,WeatherLink 5.4,2013-04-26 09:17:00,
2013-04-26 05:23:00,71.8,69.0,29.85,North,-999,0.0,0.0,91,0.00,,,-99.99,0,WeatherLink 5.4,2013-04-26 09:23:00,
2013-04-26 05:29:00,71.8,69.0,29.85,North,-999,0.0,0.0,91,0.00,,,-99.99,0,WeatherLink 5.4,2013-04-26 09:29:00,
2013-04-26 05:34:00,71.8,69.0,29.85,North,-999,0.0,0.0,91,0.00,,,-99.99,0,WeatherLink 5.4,2013-04-26 09:34:00,
2013-04-26 05:40:00,71.8,69.0,29.85,North,-999,0.0,0.0,91,0.00,,,-99.99,0,WeatherLink 5.4,2013-04-26 09:40:00,
2013-04-26 05:46:00,71.8,68.7,29.85,North,-999,0.0,0.0,90,0.00,,,-99.99,0,WeatherLink 5.4,2013-04-26 09:46:00,
2013-04-26 05:52:00,71.7,68.6,29.85,North,-999,0.0,0.0,90,0.00,,,-99.99,0,WeatherLink 5.4,2013-04-26 09:52:00,
2013-04-26 05:57:00,71.6,68.5,29.85,North,-999,0.0,0.0,90,0.00,,,-99.99,0,WeatherLink 5.4,2013-04-26 09:57:00,
2013-04-26 06:03:00,71.6,68.5,29.85,North,-999,0.0,0.0,90,0.00,,,-99.99,7,WeatherLink 5.4,2013-04-26 10:03:00,
2013-04-26 06:09:00,71.5,68.4,29.86,North,-999,0.0,0.0,90,0.00,,,-99.99,11,WeatherLink 5.4,2013-04-26 10:09:00,
2013-04-26 06:15:00,71.5,68.4,29.86,North,-999,0.0,0.0,90,0.00,,,-99.99,14,WeatherLink 5.4,2013-04-26 10:15:00,
2013-04-26 06:20:00,71.6,68.8,29.86,North,-999,0.0,0.0,91,0.00,,,-99.99,30,WeatherLink 5.4,2013-04-26 10:20:00,
2013-04-26 06:26:00,71.6,68.8,29.86,North,-999,0.0,0.0,91,0.00,,,-99.99,35,WeatherLink 5.4,2013-04-26 10:26:00,
2013-04-26 06:32:00,71.6,68.8,29.86,North,-999,0.0,0.0,91,0.00,,,-99.99,64,WeatherLink 5.4,2013-04-26 10:32:00,
2013-04-26 06:38:00,71.6,68.8,29.86,North,-999,0.0,0.0,91,0.00,,,-99.99,81,WeatherLink 5.4,2013-04-26 10:38:00,
2013-04-26 06:43:00,71.6,68.8,29.86,North,-999,0.0,0.0,91,0.00,,,-99.99,97,WeatherLink 5.4,2013-04-26 10:43:00,
2013-04-26 06:48:00,71.6,68.5,29.86,North,-999,0.0,0.0,90,0.00,,,-99.99,113,WeatherLink 5.4,2013-04-26 10:48:00,
2013-04-26 06:54:00,71.6,68.5,29.86,North,-999,0.0,0.0,90,0.00,,,-99.99,130,WeatherLink 5.4,2013-04-26 10:54:00,
2013-04-26 06:59:00,71.8,69.0,29.86,North,-999,0.0,0.0,91,0.00,,,-99.99,150,WeatherLink 5.4,2013-04-26 10:59:00,
2013-04-26 07:05:00,72.0,68.9,29.86,North,-999,0.0,0.0,90,0.00,,,-99.99,176,WeatherLink 5.4,2013-04-26 11:05:00,
2013-04-26 07:11:00,72.3,69.2,29.87,North,-999,0.0,0.0,90,0.00,,,-99.99,201,WeatherLink 5.4,2013-04-26 11:11:00,
2013-04-26 07:17:00,72.5,69.1,29.87,North,-999,0.0,0.0,89,0.00,,,-99.99,44,WeatherLink 5.4,2013-04-26 11:17:00,
2013-04-26 07:22:00,72.7,69.3,29.87,North,-999,0.0,0.0,89,0.00,,,-99.99,70,WeatherLink 5.4,2013-04-26 11:22:00,
2013-04-26 07:28:00,72.8,69.4,29.88,North,-999,0.0,0.0,89,0.00,,,-99.99,320,WeatherLink 5.4,2013-04-26 11:28:00,
2013-04-26 07:34:00,73.2,69.4,29.88,North,-999,0.0,0.0,88,0.00,,,-99.99,157,WeatherLink 5.4,2013-04-26 11:34:00,
2013-04-26 07:39:00,73.3,69.5,29.88,North,-999,0.0,0.0,88,0.00,,,-99.99,412,WeatherLink 5.4,2013-04-26 11:39:00,
2013-04-26 07:45:00,73.7,69.9,29.88,North,-999,0.0,0.0,88,0.00,,,-99.99,245,WeatherLink 5.4,2013-04-26 11:45:00,
2013-04-26 07:51:00,73.9,69.8,29.88,North,-999,0.0,0.0,87,0.00,,,-99.99,169,WeatherLink 5.4,2013-04-26 11:51:00,
2013-04-26 07:57:00,74.2,70.1,29.89,North,-999,0.0,0.0,87,0.00,,,-99.99,470,WeatherLink 5.4,2013-04-26 11:57:00,
2013-04-26 08:02:00,74.6,70.1,29.89,North,-999,0.0,0.0,86,0.00,,,-99.99,454,WeatherLink 5.4,2013-04-26 12:02:00,
2013-04-26 08:07:00,75.1,70.3,29.89,North,-999,0.0,0.0,85,0.00,,,-99.99,470,WeatherLink 5.4,2013-04-26 12:07:00,
2013-04-26 08:13:00,75.4,70.2,29.89,North,-999,0.0,0.0,84,0.00,,,-99.99,126,WeatherLink 5.4,2013-04-26 12:13:00,
2013-04-26 08:19:00,75.7,69.8,29.89,North,-999,0.0,0.0,82,0.00,,,-99.99,109,WeatherLink 5.4,2013-04-26 12:19:00,
2013-04-26 08:25:00,75.8,69.6,29.89,North,-999,0.0,0.0,81,0.00,,,-99.99,72,WeatherLink 5.4,2013-04-26 12:25:00,
2013-04-26 08:30:00,76.0,69.7,29.89,North,-999,0.0,0.0,81,0.00,,,-99.99,90,WeatherLink 5.4,2013-04-26 12:30:00,
2013-04-26 08:36:00,76.0,69.4,29.89,North,-999,0.0,0.0,80,0.00,,,-99.99,106,WeatherLink 5.4,2013-04-26 12:36:00,
2013-04-26 08:41:00,76.1,69.5,29.89,North,-999,0.0,0.0,80,0.00,,,-99.99,158,WeatherLink 5.4,2013-04-26 12:41:00,
2013-04-26 08:47:00,76.4,69.4,29.89,North,-999,0.0,0.0,79,0.00,,,-99.99,174,WeatherLink 5.4,2013-04-26 12:47:00,
2013-04-26 08:53:00,76.5,69.1,29.89,North,-999,0.0,0.0,78,0.00,,,-99.99,159,WeatherLink 5.4,2013-04-26 12:53:00,
2013-04-26 08:58:00,76.7,69.3,29.90,North,-999,0.0,0.0,78,0.00,,,-99.99,169,WeatherLink 5.4,2013-04-26 12:58:00,
2013-04-26 09:03:00,76.9,68.8,29.90,North,-999,0.0,0.0,76,0.00,,,-99.99,192,WeatherLink 5.4,2013-04-26 13:03:00,
2013-04-26 09:09:00,77.4,68.9,29.90,North,-999,0.0,0.0,75,0.00,,,-99.99,808,WeatherLink 5.4,2013-04-26 13:09:00,
2013-04-26 09:16:00,78.4,68.2,29.90,ENE,67,3.0,5.0,71,0.00,,,-99.99,825,WeatherLink 5.4,2013-04-26 13:16:00,
2013-04-26 09:21:00,79.5,68.0,29.90,East,90,2.0,6.0,68,0.00,,,-99.99,852,WeatherLink 5.4,2013-04-26 13:21:00,
2013-04-26 09:27:00,80.3,68.3,29.90,East,90,1.0,5.0,67,0.00,,,-99.99,834,WeatherLink 5.4,2013-04-26 13:27:00,
2013-04-26 09:32:00,80.7,68.3,29.90,ESE,112,0.0,2.0,66,0.00,,,-99.99,820,WeatherLink 5.4,2013-04-26 13:32:00,
2013-04-26 09:37:00,81.2,67.9,29.90,NE,45,0.0,1.0,64,0.00,,,-99.99,815,WeatherLink 5.4,2013-04-26 13:37:00,
2013-04-26 09:43:00,81.7,68.3,29.90,North,-999,0.0,0.0,64,0.00,,,-99.99,864,WeatherLink 5.4,2013-04-26 13:43:00,
2013-04-26 09:49:00,82.4,69.0,29.90,North,-999,0.0,0.0,64,0.00,,,-99.99,904,WeatherLink 5.4,2013-04-26 13:49:00,
2013-04-26 09:54:00,82.6,68.7,29.90,NNW,337,0.0,2.0,63,0.00,,,-99.99,883,WeatherLink 5.4,2013-04-26 13:54:00,
2013-04-26 09:59:00,82.6,68.7,29.90,North,-999,0.0,0.0,63,0.00,,,-99.99,883,WeatherLink 5.4,2013-04-26 13:59:00,
2013-04-26 10:05:00,82.6,67.8,29.90,East,90,4.0,7.0,61,0.00,,,-99.99,846,WeatherLink 5.4,2013-04-26 14:05:00,
2013-04-26 10:11:00,82.4,67.1,29.90,North,0,1.0,2.0,60,0.00,,,-99.99,857,WeatherLink 5.4,2013-04-26 14:11:00,
2013-04-26 10:16:00,82.4,66.6,29.90,ESE,112,0.0,1.0,59,0.00,,,-99.99,897,WeatherLink 5.4,2013-04-26 14:16:00,
2013-04-26 10:22:00,82.8,66.0,29.90,East,90,1.0,3.0,57,0.00,,,-99.99,871,WeatherLink 5.4,2013-04-26 14:22:00,
2013-04-26 10:28:00,83.2,66.9,29.90,North,-999,0.0,0.0,58,0.00,,,-99.99,883,WeatherLink 5.4,2013-04-26 14:28:00,
2013-04-26 10:33:00,83.6,66.2,29.90,North,-999,0.0,0.0,56,0.00,,,-99.99,896,WeatherLink 5.4,2013-04-26 14:33:00,
2013-04-26 10:38:00,83.8,66.9,29.90,North,-999,0.0,0.0,57,0.00,,,-99.99,917,WeatherLink 5.4,2013-04-26 14:38:00,
2013-04-26 10:44:00,84.1,67.2,29.90,NE,45,0.0,2.0,57,0.00,,,-99.99,999,WeatherLink 5.4,2013-04-26 14:44:00,
2013-04-26 10:50:00,84.1,67.7,29.90,North,-999,0.0,0.0,58,0.00,,,-99.99,1022,WeatherLink 5.4,2013-04-26 14:50:00,
2013-04-26 10:55:00,84.0,67.1,29.90,ENE,67,1.0,2.0,57,0.00,,,-99.99,1035,WeatherLink 5.4,2013-04-26 14:55:00,
2013-04-26 11:00:00,84.0,68.1,29.90,North,-999,0.0,0.0,59,0.00,,,-99.99,989,WeatherLink 5.4,2013-04-26 15:00:00,
2013-04-26 11:06:00,84.1,67.2,29.90,ESE,112,1.0,2.0,57,0.00,,,-99.99,978,WeatherLink 5.4,2013-04-26 15:06:00,
2013-04-26 11:11:00,84.1,67.2,29.90,North,-999,0.0,0.0,57,0.00,,,-99.99,1057,WeatherLink 5.4,2013-04-26 15:11:00,
2013-04-26 11:17:00,84.1,67.2,29.90,East,90,1.0,2.0,57,0.00,,,-99.99,1086,WeatherLink 5.4,2013-04-26 15:17:00,
2013-04-26 11:23:00,84.5,68.6,29.90,North,-999,0.0,0.0,59,0.00,,,-99.99,1042,WeatherLink 5.4,2013-04-26 15:23:00,
2013-04-26 11:29:00,84.5,68.1,29.89,East,90,0.0,2.0,58,0.00,,,-99.99,1052,WeatherLink 5.4,2013-04-26 15:29:00,
2013-04-26 11:35:00,84.5,66.0,29.89,NE,45,2.0,4.0,54,0.00,,,-99.99,1075,WeatherLink 5.4,2013-04-26 15:35:00,
2013-04-26 11:41:00,84.5,67.1,29.89,North,0,1.0,6.0,56,0.00,,,-99.99,1056,WeatherLink 5.4,2013-04-26 15:41:00,
2013-04-26 11:46:00,84.5,68.1,29.89,NNW,337,1.0,4.0,58,0.00,,,-99.99,1103,WeatherLink 5.4,2013-04-26 15:46:00,
2013-04-26 11:51:00,84.1,66.2,29.89,East,90,1.0,2.0,55,0.00,,,-99.99,1135,WeatherLink 5.4,2013-04-26 15:51:00,
2013-04-26 11:57:00,84.5,68.1,29.90,North,0,2.0,6.0,58,0.00,,,-99.99,1100,WeatherLink 5.4,2013-04-26 15:57:00,
2013-04-26 12:03:00,84.1,67.7,29.90,North,0,2.0,5.0,58,0.00,,,-99.99,1116,WeatherLink 5.4,2013-04-26 16:03:00,
2013-04-26 12:08:00,83.5,65.6,29.90,ESE,112,0.0,1.0,55,0.00,,,-99.99,1049,WeatherLink 5.4,2013-04-26 16:08:00,
2013-04-26 12:13:00,83.6,65.2,29.90,East,90,0.0,1.0,54,0.00,,,-99.99,1010,WeatherLink 5.4,2013-04-26 16:13:00,
2013-04-26 12:19:00,83.6,65.7,29.90,North,-999,0.0,0.0,55,0.00,,,-99.99,1021,WeatherLink 5.4,2013-04-26 16:19:00,
2013-04-26 12:25:00,84.0,66.6,29.89,North,-999,0.0,0.0,56,0.00,,,-99.99,1017,WeatherLink 5.4,2013-04-26 16:25:00,
2013-04-26 12:31:00,84.0,66.6,29.89,ENE,67,1.0,6.0,56,0.00,,,-99.99,1121,WeatherLink 5.4,2013-04-26 16:31:00,
2013-04-26 12:37:00,84.0,67.1,29.89,North,-999,0.0,0.0,57,0.00,,,-99.99,1196,WeatherLink 5.4,2013-04-26 16:37:00,
2013-04-26 12:43:00,83.8,67.9,29.89,North,-999,0.0,0.0,59,0.00,,,-99.99,1147,WeatherLink 5.4,2013-04-26 16:43:00,
2013-04-26 12:48:00,83.7,67.4,29.89,ENE,67,0.0,2.0,58,0.00,,,-99.99,1149,WeatherLink 5.4,2013-04-26 16:48:00,
2013-04-26 12:55:00,83.6,67.3,29.89,ENE,67,0.0,6.0,58,0.00,,,-99.99,1089,WeatherLink 5.4,2013-04-26 16:55:00,
2013-04-26 13:01:00,83.2,65.4,29.89,North,0,1.0,3.0,55,0.00,,,-99.99,1086,WeatherLink 5.4,2013-04-26 17:01:00,
2013-04-26 13:06:00,83.2,66.4,29.89,North,-999,0.0,0.0,57,0.00,,,-99.99,1089,WeatherLink 5.4,2013-04-26 17:06:00,
2013-04-26 13:12:00,84.0,66.1,29.89,North,0,1.0,5.0,55,0.00,,,-99.99,384,WeatherLink 5.4,2013-04-26 17:12:00,
2013-04-26 13:18:00,84.1,66.7,29.89,East,90,1.0,7.0,56,0.00,,,-99.99,327,WeatherLink 5.4,2013-04-26 17:18:00,
2013-04-26 13:24:00,83.8,67.9,29.88,NNW,337,0.0,3.0,59,0.00,,,-99.99,209,WeatherLink 5.4,2013-04-26 17:24:00,
2013-04-26 13:30:00,83.6,67.8,29.88,North,-999,0.0,0.0,59,0.00,,,-99.99,1068,WeatherLink 5.4,2013-04-26 17:30:00,
2013-04-26 13:35:00,84.0,68.1,29.88,North,-999,0.0,0.0,59,0.00,,,-99.99,1163,WeatherLink 5.4,2013-04-26 17:35:00,
2013-04-26 13:41:00,84.3,68.4,29.88,North,-999,0.0,0.0,59,0.00,,,-99.99,213,WeatherLink 5.4,2013-04-26 17:41:00,
2013-04-26 13:47:00,84.1,68.2,29.88,North,-999,0.0,0.0,59,0.00,,,-99.99,223,WeatherLink 5.4,2013-04-26 17:47:00,
2013-04-26 13:53:00,84.0,69.1,29.88,NNW,337,0.0,1.0,61,0.00,,,-99.99,1063,WeatherLink 5.4,2013-04-26 17:53:00,
2013-04-26 13:59:00,83.9,68.5,29.87,NNE,22,0.0,3.0,60,0.00,,,-99.99,296,WeatherLink 5.4,2013-04-26 17:59:00,
2013-04-26 14:05:00,83.6,68.7,29.87,North,0,2.0,8.0,61,0.00,,,-99.99,954,WeatherLink 5.4,2013-04-26 18:05:00,
2013-04-26 14:10:00,83.4,68.5,29.86,NNE,22,0.0,1.0,61,0.00,,,-99.99,933,WeatherLink 5.4,2013-04-26 18:10:00,
2013-04-26 14:16:00,83.6,68.7,29.86,NNW,337,3.0,10.0,61,0.00,,,-99.99,957,WeatherLink 5.4,2013-04-26 18:16:00,
2013-04-26 14:21:00,83.8,68.4,29.86,NNE,22,1.0,3.0,60,0.00,,,-99.99,970,WeatherLink 5.4,2013-04-26 18:21:00,
2013-04-26 14:26:00,84.0,68.6,29.86,North,0,0.0,1.0,60,0.00,,,-99.99,947,WeatherLink 5.4,2013-04-26 18:26:00,
2013-04-26 14:32:00,84.0,68.1,29.86,North,-999,0.0,0.0,59,0.00,,,-99.99,901,WeatherLink 5.4,2013-04-26 18:32:00,
2013-04-26 14:37:00,84.1,67.7,29.86,NNE,22,1.0,6.0,58,0.00,,,-99.99,918,WeatherLink 5.4,2013-04-26 18:37:00,
2013-04-26 14:43:00,84.1,68.2,29.85,NNW,337,0.0,2.0,59,0.00,,,-99.99,848,WeatherLink 5.4,2013-04-26 18:43:00,
2013-04-26 14:48:00,84.1,67.7,29.85,East,90,1.0,7.0,58,0.00,,,-99.99,821,WeatherLink 5.4,2013-04-26 18:48:00,
2013-04-26 14:54:00,83.8,66.9,29.85,North,0,0.0,1.0,57,0.00,,,-99.99,808,WeatherLink 5.4,2013-04-26 18:54:00,
2013-04-26 14:59:00,83.8,67.4,29.85,North,0,2.0,7.0,58,0.00,,,-99.99,794,WeatherLink 5.4,2013-04-26 18:59:00,
2013-04-26 15:05:00,83.8,66.9,29.85,East,90,2.0,7.0,57,0.00,,,-99.99,785,WeatherLink 5.4,2013-04-26 19:05:00,
2013-04-26 15:10:00,83.8,67.4,29.84,North,-999,0.0,0.0,58,0.00,,,-99.99,771,WeatherLink 5.4,2013-04-26 19:10:00,
2013-04-26 15:16:00,84.1,68.2,29.84,WNW,292,0.0,5.0,59,0.00,,,-99.99,762,WeatherLink 5.4,2013-04-26 19:16:00,
2013-04-26 15:22:00,84.3,68.9,29.84,North,0,2.0,6.0,60,0.00,,,-99.99,792,WeatherLink 5.4,2013-04-26 19:22:00,
2013-04-26 15:27:00,84.0,68.6,29.84,North,-999,0.0,0.0,60,0.00,,,-99.99,716,WeatherLink 5.4,2013-04-26 19:27:00,
2013-04-26 15:33:00,84.0,68.6,29.84,North,-999,0.0,0.0,60,0.00,,,-99.99,765,WeatherLink 5.4,2013-04-26 19:33:00,
2013-04-26 15:38:00,83.8,67.9,29.84,NNE,22,0.0,3.0,59,0.00,,,-99.99,725,WeatherLink 5.4,2013-04-26 19:38:00,
2013-04-26 15:44:00,83.4,67.6,29.84,NE,45,0.0,2.0,59,0.00,,,-99.99,778,WeatherLink 5.4,2013-04-26 19:44:00,
2013-04-26 15:49:00,83.4,67.1,29.84,NE,45,0.0,2.0,58,0.00,,,-99.99,665,WeatherLink 5.4,2013-04-26 19:49:00,
2013-04-26 15:55:00,83.4,68.1,29.84,North,-999,0.0,0.0,60,0.00,,,-99.99,633,WeatherLink 5.4,2013-04-26 19:55:00,
2013-04-26 16:00:00,83.6,68.2,29.84,North,-999,0.0,0.0,60,0.00,,,-99.99,589,WeatherLink 5.4,2013-04-26 20:00:00,
2013-04-26 16:06:00,83.4,67.6,29.84,ENE,67,1.0,5.0,59,0.00,,,-99.99,574,WeatherLink 5.4,2013-04-26 20:06:00,
2013-04-26 16:11:00,83.0,67.7,29.84,NNE,22,1.0,7.0,60,0.00,,,-99.99,116,WeatherLink 5.4,2013-04-26 20:11:00,
2013-04-26 16:17:00,82.4,67.1,29.84,East,90,2.0,6.0,60,0.00,,,-99.99,545,WeatherLink 5.4,2013-04-26 20:17:00,
2013-04-26 16:23:00,82.4,67.6,29.84,East,90,3.0,7.0,61,0.00,,,-99.99,153,WeatherLink 5.4,2013-04-26 20:23:00,
2013-04-26 16:28:00,82.2,68.3,29.83,North,-999,0.0,0.0,63,0.00,,,-99.99,194,WeatherLink 5.4,2013-04-26 20:28:00,
2013-04-26 16:34:00,82.2,68.3,29.83,North,-999,0.0,0.0,63,0.00,,,-99.99,118,WeatherLink 5.4,2013-04-26 20:34:00,
2013-04-26 16:40:00,82.0,69.1,29.83,North,-999,0.0,0.0,65,0.00,,,-99.99,160,WeatherLink 5.4,2013-04-26 20:40:00,
2013-04-26 16:45:00,81.8,68.4,29.83,North,-999,0.0,0.0,64,0.00,,,-99.99,547,WeatherLink 5.4,2013-04-26 20:45:00,
2013-04-26 16:51:00,81.9,68.5,29.83,North,-999,0.0,0.0,64,0.00,,,-99.99,510,WeatherLink 5.4,2013-04-26 20:51:00,
2013-04-26 16:56:00,81.8,68.0,29.83,East,90,0.0,2.0,63,0.00,,,-99.99,86,WeatherLink 5.4,2013-04-26 20:56:00,
2013-04-26 17:02:00,81.8,67.5,29.83,NE,45,0.0,1.0,62,0.00,,,-99.99,100,WeatherLink 5.4,2013-04-26 21:02:00,
2013-04-26 17:07:00,81.6,67.3,29.83,North,-999,0.0,0.0,62,0.00,,,-99.99,354,WeatherLink 5.4,2013-04-26 21:07:00,
2013-04-26 17:13:00,81.6,68.2,29.84,North,0,2.0,6.0,64,0.00,,,-99.99,359,WeatherLink 5.4,2013-04-26 21:13:00,
2013-04-26 17:19:00,81.6,68.7,29.84,North,-999,0.0,0.0,65,0.00,,,-99.99,141,WeatherLink 5.4,2013-04-26 21:19:00,
2013-04-26 17:25:00,81.6,68.7,29.84,East,90,0.0,1.0,65,0.00,,,-99.99,146,WeatherLink 5.4,2013-04-26 21:25:00,
2013-04-26 17:30:00,81.4,68.9,29.84,North,-999,0.0,0.0,66,0.00,,,-99.99,174,WeatherLink 5.4,2013-04-26 21:30:00,
2013-04-26 17:35:00,81.2,68.8,29.84,North,-999,0.0,0.0,66,0.00,,,-99.99,125,WeatherLink 5.4,2013-04-26 21:35:00,
2013-04-26 17:41:00,81.2,68.3,29.84,ENE,67,0.0,3.0,65,0.00,,,-99.99,91,WeatherLink 5.4,2013-04-26 21:41:00,
2013-04-26 17:47:00,81.1,68.7,29.84,North,-999,0.0,0.0,66,0.00,,,-99.99,62,WeatherLink 5.4,2013-04-26 21:47:00,
2013-04-26 17:53:00,80.9,68.5,29.84,North,-999,0.0,0.0,66,0.00,,,-99.99,52,WeatherLink 5.4,2013-04-26 21:53:00,
2013-04-26 17:59:00,80.7,68.3,29.84,NNW,337,0.0,2.0,66,0.00,,,-99.99,37,WeatherLink 5.4,2013-04-26 21:59:00,
2013-04-26 18:04:00,80.7,68.3,29.84,North,-999,0.0,0.0,66,0.00,,,-99.99,42,WeatherLink 5.4,2013-04-26 22:04:00,
2013-04-26 18:10:00,80.5,69.0,29.84,NE,45,1.0,6.0,68,0.00,,,-99.99,49,WeatherLink 5.4,2013-04-26 22:10:00,
2013-04-26 18:15:00,80.3,69.2,29.84,North,-999,0.0,0.0,69,0.00,,,-99.99,35,WeatherLink 5.4,2013-04-26 22:15:00,
2013-04-26 18:21:00,80.1,69.4,29.84,North,0,0.0,2.0,70,0.00,,,-99.99,48,WeatherLink 5.4,2013-04-26 22:21:00,
2013-04-26 18:26:00,79.8,69.1,29.85,North,-999,0.0,0.0,70,0.00,,,-99.99,28,WeatherLink 5.4,2013-04-26 22:26:00,
2013-04-26 18:32:00,79.6,69.0,29.85,North,-999,0.0,0.0,70,0.00,,,-99.99,16,WeatherLink 5.4,2013-04-26 22:32:00,
2013-04-26 18:37:00,79.4,68.8,29.85,NNE,22,1.0,6.0,70,0.00,,,-99.99,11,WeatherLink 5.4,2013-04-26 22:37:00,
2013-04-26 18:43:00,79.2,68.6,29.86,North,-999,0.0,0.0,70,0.00,,,-99.99,9,WeatherLink 5.4,2013-04-26 22:43:00,
2013-04-26 18:48:00,79.0,68.4,29.86,North,-999,0.0,0.0,70,0.00,,,-99.99,5,WeatherLink 5.4,2013-04-26 22:48:00,
2013-04-26 18:55:00,78.8,68.2,29.86,North,-999,0.0,0.0,70,0.00,,,-99.99,0,WeatherLink 5.4,2013-04-26 22:55:00,
2013-04-26 19:00:00,78.6,68.4,29.86,North,-999,0.0,0.0,71,0.00,,,-99.99,0,WeatherLink 5.4,2013-04-26 23:00:00,
2013-04-26 19:06:00,78.6,68.4,29.86,North,-999,0.0,0.0,71,0.00,,,-99.99,0,WeatherLink 5.4,2013-04-26 23:06:00,
2013-04-26 19:11:00,78.6,68.4,29.86,North,-999,0.0,0.0,71,0.00,,,-99.99,0,WeatherLink 5.4,2013-04-26 23:11:00,
2013-04-26 19:16:00,78.5,68.3,29.86,North,-999,0.0,0.0,71,0.00,,,-99.99,0,WeatherLink 5.4,2013-04-26 23:16:00,
2013-04-26 19:22:00,78.5,68.3,29.86,North,-999,0.0,0.0,71,0.00,,,-99.99,0,WeatherLink 5.4,2013-04-26 23:22:00,
2013-04-26 19:27:00,78.5,68.3,29.86,North,-999,0.0,0.0,71,0.00,,,-99.99,0,WeatherLink 5.4,2013-04-26 23:27:00,
2013-04-26 19:33:00,78.5,68.3,29.86,North,-999,0.0,0.0,71,0.00,,,-99.99,0,WeatherLink 5.4,2013-04-26 23:33:00,
2013-04-26 19:38:00,78.5,68.3,29.86,North,-999,0.0,0.0,71,0.00,,,-99.99,0,WeatherLink 5.4,2013-04-26 23:38:00,
2013-04-26 19:44:00,78.5,68.3,29.87,North,-999,0.0,0.0,71,0.00,,,-99.99,0,WeatherLink 5.4,2013-04-26 23:44:00,
2013-04-26 19:49:00,78.3,68.1,29.87,North,-999,0.0,0.0,71,0.00,,,-99.99,0,WeatherLink 5.4,2013-04-26 23:49:00,
2013-04-26 20:06:00,78.3,68.5,29.87,North,-999,0.0,0.0,72,0.00,,,-99.99,0,WeatherLink 5.4,2013-04-27 00:06:00,
2013-04-26 20:11:00,78.1,68.3,29.88,North,-999,0.0,0.0,72,0.00,,,-99.99,0,WeatherLink 5.4,2013-04-27 00:11:00,
2013-04-26 20:16:00,78.1,68.3,29.88,North,-999,0.0,0.0,72,0.00,,,-99.99,0,WeatherLink 5.4,2013-04-27 00:16:00,
2013-04-26 20:22:00,78.1,68.3,29.88,North,-999,0.0,0.0,72,0.00,,,-99.99,0,WeatherLink 5.4,2013-04-27 00:22:00,
2013-04-26 20:28:00,78.1,68.3,29.88,North,-999,0.0,0.0,72,0.00,,,-99.99,0,WeatherLink 5.4,2013-04-27 00:28:00,
2013-04-26 20:33:00,77.9,68.1,29.88,North,-999,0.0,0.0,72,0.00,,,-99.99,0,WeatherLink 5.4,2013-04-27 00:33:00,
2013-04-26 20:39:00,77.9,68.1,29.89,North,-999,0.0,0.0,72,0.00,,,-99.99,0,WeatherLink 5.4,2013-04-27 00:39:00,
2013-04-26 20:44:00,77.7,68.0,29.89,North,-999,0.0,0.0,72,0.00,,,-99.99,0,WeatherLink 5.4,2013-04-27 00:44:00,
2013-04-26 20:49:00,77.7,68.0,29.89,North,-999,0.0,0.0,72,0.00,,,-99.99,0,WeatherLink 5.4,2013-04-27 00:49:00,
2013-04-26 20:55:00,77.7,68.4,29.89,North,-999,0.0,0.0,73,0.00,,,-99.99,0,WeatherLink 5.4,2013-04-27 00:55:00,
2013-04-26 21:01:00,77.7,68.4,29.89,North,-999,0.0,0.0,73,0.00,,,-99.99,0,WeatherLink 5.4,2013-04-27 01:01:00,
2013-04-26 21:06:00,77.7,68.4,29.89,North,-999,0.0,0.0,73,0.00,,,-99.99,0,WeatherLink 5.4,2013-04-27 01:06:00,
2013-04-26 21:11:00,77.7,68.4,29.89,North,-999,0.0,0.0,73,0.00,,,-99.99,0,WeatherLink 5.4,2013-04-27 01:11:00,
2013-04-26 21:17:00,77.6,68.3,29.89,North,-999,0.0,0.0,73,0.00,,,-99.99,0,WeatherLink 5.4,2013-04-27 01:17:00,
2013-04-26 21:22:00,77.6,68.7,29.89,North,-999,0.0,0.0,74,0.00,,,-99.99,0,WeatherLink 5.4,2013-04-27 01:22:00,
2013-04-26 21:28:00,77.6,68.7,29.89,North,-999,0.0,0.0,74,0.00,,,-99.99,0,WeatherLink 5.4,2013-04-27 01:28:00,
2013-04-26 21:34:00,77.6,68.7,29.89,North,-999,0.0,0.0,74,0.00,,,-99.99,0,WeatherLink 5.4,2013-04-27 01:34:00,
2013-04-26 21:39:00,77.6,68.7,29.89,North,-999,0.0,0.0,74,0.00,,,-99.99,0,WeatherLink 5.4,2013-04-27 01:39:00,
2013-04-26 21:45:00,77.6,68.7,29.89,North,-999,0.0,0.0,74,0.00,,,-99.99,0,WeatherLink 5.4,2013-04-27 01:45:00,
2013-04-26 21:50:00,77.4,68.5,29.89,North,-999,0.0,0.0,74,0.00,,,-99.99,0,WeatherLink 5.4,2013-04-27 01:50:00,
2013-04-26 21:55:00,77.4,68.5,29.89,North,-999,0.0,0.0,74,0.00,,,-99.99,0,WeatherLink 5.4,2013-04-27 01:55:00,
2013-04-26 22:02:00,77.4,68.5,29.89,North,-999,0.0,0.0,74,0.00,,,-99.99,0,WeatherLink 5.4,2013-04-27 02:02:00,
2013-04-26 22:07:00,77.2,68.3,29.89,North,-999,0.0,0.0,74,0.00,,,-99.99,0,WeatherLink 5.4,2013-04-27 02:07:00,
2013-04-26 22:12:00,77.2,68.3,29.89,North,-999,0.0,0.0,74,0.00,,,-99.99,0,WeatherLink 5.4,2013-04-27 02:12:00,
2013-04-26 22:18:00,77.2,68.3,29.89,North,-999,0.0,0.0,74,0.00,,,-99.99,0,WeatherLink 5.4,2013-04-27 02:18:00,
2013-04-26 22:24:00,77.2,68.7,29.89,North,-999,0.0,0.0,75,0.00,,,-99.99,0,WeatherLink 5.4,2013-04-27 02:24:00,
2013-04-26 22:30:00,77.0,68.9,29.89,North,-999,0.0,0.0,76,0.00,,,-99.99,0,WeatherLink 5.4,2013-04-27 02:30:00,
2013-04-26 22:36:00,76.7,68.6,29.89,North,-999,0.0,0.0,76,0.00,,,-99.99,0,WeatherLink 5.4,2013-04-27 02:36:00,
2013-04-26 22:41:00,76.5,68.7,29.90,North,-999,0.0,0.0,77,0.00,,,-99.99,0,WeatherLink 5.4,2013-04-27 02:41:00,
2013-04-26 22:47:00,76.1,68.7,29.90,North,-999,0.0,0.0,78,0.00,,,-99.99,0,WeatherLink 5.4,2013-04-27 02:47:00,
2013-04-26 22:53:00,75.8,68.8,29.90,North,-999,0.0,0.0,79,0.00,,,-99.99,0,WeatherLink 5.4,2013-04-27 02:53:00,
2013-04-26 22:59:00,75.6,69.0,29.90,North,-999,0.0,0.0,80,0.00,,,-99.99,0,WeatherLink 5.4,2013-04-27 02:59:00,
2013-04-26 23:04:00,75.6,69.0,29.90,North,-999,0.0,0.0,80,0.00,,,-99.99,0,WeatherLink 5.4,2013-04-27 03:04:00,
2013-04-26 23:09:00,75.4,68.8,29.89,North,-999,0.0,0.0,80,0.00,,,-99.99,0,WeatherLink 5.4,2013-04-27 03:09:00,
2013-04-26 23:14:00,75.3,68.7,29.89,North,-999,0.0,0.0,80,0.00,,,-99.99,0,WeatherLink 5.4,2013-04-27 03:14:00,
2013-04-26 23:20:00,75.1,68.9,29.89,North,-999,0.0,0.0,81,0.00,,,-99.99,0,WeatherLink 5.4,2013-04-27 03:20:00,
2013-04-26 23:26:00,74.9,68.7,29.89,North,-999,0.0,0.0,81,0.00,,,-99.99,0,WeatherLink 5.4,2013-04-27 03:26:00,
2013-04-26 23:32:00,74.7,68.5,29.89,North,-999,0.0,0.0,81,0.00,,,-99.99,0,WeatherLink 5.4,2013-04-27 03:32:00,
2013-04-26 23:38:00,74.6,68.7,29.89,North,-999,0.0,0.0,82,0.00,,,-99.99,0,WeatherLink 5.4,2013-04-27 03:38:00,
2013-04-26 23:43:00,74.6,68.7,29.89,North,-999,0.0,0.0,82,0.00,,,-99.99,0,WeatherLink 5.4,2013-04-27 03:43:00,
2013-04-26 23:48:00,74.6,68.7,29.89,North,-999,0.0,0.0,82,0.00,,,-99.99,0,WeatherLink 5.4,2013-04-27 03:48:00,
2013-04-26 23:54:00,74.4,68.5,29.89,North,-999,0.0,0.0,82,0.00,,,-99.99,0,WeatherLink 5.4,2013-04-27 03:54:00,
2013-04-26 23:59:00,74.2,68.7,29.88,North,-999,0.0,0.0,83,0.00,,,-99.99,0,WeatherLink 5.4,2013-04-27 03:59:00,